Weather History for KMGW - May, 2012

Change the Weather History Date:

Monday, May 7, 2012

  Actual Average Record
Temperature  
Mean Temperature 72 °F 59 °F  
Max Temperature 83 °F 70 °F 90 °F (1983)
Min Temperature 61 °F 48 °F 27 °F (1974)
Degree Days  
Heating Degree Days 0 7  
Month to date heating degree days 0 53  
Since 1 July heating degree days 4069 5036  
Cooling Degree Days 7 1  
Month to date cooling degree days 44 7  
Year to date cooling degree days 79 23  
Growing Degree Days 22 (Base 50)    
Moisture  
Dew Point 60 °F    
Average Humidity 68    
Maximum Humidity 90    
Minimum Humidity 46    
Precipitation  
Precipitation 0.01 in 0.14 in - ()
Month to date precipitation 1.47 0.96  
Year to date precipitation 10.45 13.54  
Sea Level Pressure  
Sea Level Pressure 29.90 in    
Wind  
Wind Speed 5 mph (South)    
Max Wind Speed 15 mph    
Max Gust Speed 21 mph    
Visibility 10 miles    
Events Thunderstorm    
T = Trace of Precipitation, MM = Missing Value Source: NWS Daily Summary

Daily Weather History Graph

Daily Weather History Graph

Search for Another Location

Airport or City:

Trip Planner

Search our weather history database for the weather conditions in past years. The results will help you decide how hot, cold, wet, or windy it might be!

Date:

Astronomy

May. 07, 2012 Rise Set
Actual Time 6:12 AM EDT 8:20 PM EDT
Civil Twilight 5:43 AM EDT 8:49 PM EDT
Nautical Twilight 5:06 AM EDT 9:26 PM EDT
Astronomical Twilight 4:27 AM EDT 10:06 PM EDT
Moon 10:30 PM EDT (5/7) 7:17 AM EDT (5/7)
Length of Visible Light 15h 06m
Length of Day
14h 07m
Waning Gibbous, 97% of the Moon is Illuminated
May 7
Waning Gibbous
May 12
Last Quarter
May 20
New
May 28
First Quarter
Jun 4
Full

Hourly Weather History & Observations

Time (EDT) Temp. Heat Index Dew Point Humidity Pressure Visibility Wind Dir Wind Speed Gust Speed Precip Events Conditions
12:53 AM 66.0 °F - 60.1 °F 81% 29.99 in 10.0 mi Calm Calm - N/A   Clear
1:53 AM 66.0 °F - 60.1 °F 81% 29.96 in 10.0 mi Calm Calm - N/A   Clear
2:53 AM 64.0 °F - 59.0 °F 84% 29.94 in 10.0 mi South 5.8 mph - N/A   Clear
3:53 AM 63.0 °F - 59.0 °F 87% 29.94 in 10.0 mi South 3.5 mph - N/A   Clear
4:53 AM 63.0 °F - 59.0 °F 87% 29.94 in 10.0 mi SSE 3.5 mph - N/A   Overcast
5:53 AM 63.0 °F - 57.9 °F 84% 29.94 in 10.0 mi Calm Calm - N/A   Clear
6:53 AM 62.1 °F - 57.9 °F 86% 29.96 in 10.0 mi SSE 3.5 mph - N/A   Partly Cloudy
7:53 AM 66.0 °F - 59.0 °F 78% 29.95 in 10.0 mi South 3.5 mph - N/A   Clear
8:53 AM 69.1 °F - 60.1 °F 73% 29.95 in 10.0 mi Calm Calm - N/A   Clear
9:53 AM 73.0 °F - 60.1 °F 64% 29.95 in 10.0 mi Variable 4.6 mph - N/A   Partly Cloudy
10:53 AM 75.9 °F - 59.0 °F 56% 29.95 in 10.0 mi SSW 6.9 mph - N/A   Mostly Cloudy
11:53 AM 75.9 °F - 60.1 °F 58% 29.94 in 10.0 mi Variable 4.6 mph - N/A   Mostly Cloudy
12:53 PM 75.9 °F - 61.0 °F 60% 29.93 in 10.0 mi SSE 5.8 mph - N/A   Scattered Clouds
1:53 PM 80.1 °F 81.1 °F 61.0 °F 52% 29.90 in 10.0 mi South 8.1 mph - N/A   Partly Cloudy
2:53 PM 81.0 °F 81.6 °F 60.1 °F 49% 29.88 in 10.0 mi SSW 4.6 mph - N/A   Scattered Clouds
3:53 PM 81.0 °F 81.3 °F 59.0 °F 47% 29.86 in 10.0 mi Variable 6.9 mph - N/A   Partly Cloudy
4:53 PM 82.9 °F 82.8 °F 59.0 °F 44% 29.83 in 10.0 mi SW 8.1 mph - N/A   Scattered Clouds
5:53 PM 80.1 °F 80.7 °F 59.0 °F 48% 29.82 in 10.0 mi Variable 5.8 mph - N/A   Mostly Cloudy
6:08 PM 77.0 °F - 60.8 °F 57% 29.85 in 10.0 mi WSW 9.2 mph 20.7 mph N/A Thunderstorm Thunderstorm
6:38 PM 73.4 °F - 62.6 °F 69% 29.84 in 10.0 mi South 4.6 mph - 0.01 in   Scattered Clouds
6:53 PM 73.9 °F - 62.1 °F 66% 29.82 in 10.0 mi Calm Calm - 0.01 in   Clear
7:53 PM 73.0 °F - 61.0 °F 66% 29.82 in 10.0 mi SE 4.6 mph - N/A   Scattered Clouds
8:53 PM 71.1 °F - 60.1 °F 68% 29.83 in 10.0 mi SE 6.9 mph - N/A   Clear
9:53 PM 70.0 °F - 61.0 °F 73% 29.85 in 10.0 mi South 8.1 mph - N/A   Mostly Cloudy
10:53 PM 70.0 °F - 59.0 °F 68% 29.85 in 10.0 mi South 8.1 mph - N/A   Mostly Cloudy
11:53 PM 68.0 °F - 57.0 °F 68% 29.84 in 10.0 mi South 6.9 mph - N/A   Mostly Cloudy